Cross City, FL

11:14 AM EST on February 25, 2017 (GMT -0500)
Cross City

Weather History for KCTY - March, 2013

Change the Weather History Date:

Saturday, March 16, 2013

  Actual Average Record
Temperature  
Mean Temperature 58 °F 62 °F  
Max Temperature 76 °F 76 °F 89 °F (2015)
Min Temperature 39 °F 48 °F 32 °F (2012)
Degree Days  
Heating Degree Days 7 4  
Month to date heating degree days 177 87  
Since 1 July heating degree days 987 1207  
Cooling Degree Days 0 1  
Month to date cooling degree days 2 16  
Year to date cooling degree days 98 43  
Growing Degree Days 7 (Base 50)    
Moisture  
Dew Point 45 °F    
Average Humidity 68    
Maximum Humidity 86    
Minimum Humidity 86    
Precipitation  
Precipitation 0.00 in 0.13 in 1.57 in (2001)
Month to date precipitation 0.16 2.14  
Year to date precipitation 3.67 9.45  
Sea Level Pressure  
Sea Level Pressure 30.13 in    
Wind  
Wind Speed 5 mph (WSW)    
Max Wind Speed 18 mph    
Max Gust Speed 23 mph    
T = Trace of Precipitation, MM = Missing Value Source: NWS Daily Summary

Daily Weather History Graph

Daily Weather History Graph

Search for Another Location

Airport or City:

Trip Planner

Search our weather history database for the weather conditions in past years. The results will help you decide how hot, cold, wet, or windy it might be!

Date:

Astronomy

Mar. 16, 2013 Rise Set
Actual Time 7:40 AM EDT 7:41 PM EDT
Civil Twilight 7:16 AM EDT 8:05 PM EDT
Nautical Twilight 6:49 AM EDT 8:33 PM EDT
Astronomical Twilight 6:21 AM EDT 9:00 PM EDT
Moon 10:32 AM EDT (3/16) No Moon Set
Length of Visible Light 12h 48m
Length of Day
12h 00m
Waxing Crescent, 23% of the Moon is Illuminated
Mar 16
Waxing Crescent
Mar 19
First Quarter
Mar 27
Full
Apr 3
Last Quarter
Apr 10
New

Hourly Weather History & Observations

Time (EDT) Temp. Dew Point Humidity Pressure Visibility Wind Dir Wind Speed Gust Speed Precip Events Conditions
12:53 AM 46.9 °F 42.1 °F 83% 30.19 in - Calm Calm - N/A   Unknown
1:53 AM 44.1 °F 41.0 °F 89% 30.17 in - Calm Calm - N/A   Unknown
2:53 AM 43.0 °F 39.9 °F 89% 30.16 in - Calm Calm - N/A   Unknown
3:53 AM 42.1 °F 39.0 °F 89% 30.14 in - Calm Calm - N/A   Unknown
4:53 AM 41.0 °F 37.9 °F 89% 30.13 in - Calm Calm - N/A   Unknown
5:53 AM 39.9 °F 37.0 °F 89% 30.13 in - Calm Calm - N/A   Unknown
6:53 AM 39.0 °F 37.0 °F 93% 30.14 in - Calm Calm - N/A   Unknown
7:53 AM 39.0 °F 37.0 °F 93% 30.15 in - Calm Calm - N/A   Unknown
8:53 AM 48.0 °F 45.0 °F 89% 30.16 in - Calm Calm - N/A   Unknown
9:53 AM 62.1 °F 54.0 °F 75% 30.17 in - SW 8.1 mph - N/A   Unknown
10:53 AM 69.1 °F 54.0 °F 58% 30.18 in - West 10.4 mph - N/A   Unknown
11:53 AM 72.0 °F 52.0 °F 49% 30.17 in - WSW 10.4 mph 16.1 mph N/A   Unknown
12:53 PM 73.0 °F 51.1 °F 46% 30.15 in - WSW 9.2 mph - N/A   Unknown
1:53 PM 75.9 °F 48.9 °F 38% 30.13 in - West 12.7 mph 19.6 mph N/A   Unknown
2:53 PM 75.0 °F 46.0 °F 36% 30.11 in - West 13.8 mph - N/A   Unknown
3:53 PM 75.0 °F 45.0 °F 34% 30.09 in - SW 13.8 mph - N/A   Unknown
4:53 PM 73.9 °F 44.1 °F 34% 30.08 in - SW 15.0 mph - N/A   Unknown
5:53 PM 73.0 °F 39.9 °F 30% 30.08 in - West 10.4 mph - N/A   Unknown
6:53 PM 70.0 °F 44.1 °F 39% 30.07 in - SW 8.1 mph - N/A   Unknown
7:53 PM 63.0 °F 52.0 °F 67% 30.08 in - SSW 8.1 mph - N/A   Unknown
8:53 PM 57.9 °F 53.1 °F 84% 30.09 in - South 4.6 mph - N/A   Unknown
9:53 PM 55.0 °F 51.1 °F 86% 30.10 in - Calm Calm - N/A   Unknown
10:53 PM 52.0 °F 48.9 °F 89% 30.12 in - Calm Calm - N/A   Unknown
11:53 PM 50.0 °F 46.9 °F 89% 30.12 in - Calm Calm - N/A   Unknown